,,,PA_Meas_PMT16A,,PR_Meas_QMR101_102,,RH_Meas_QMH101,,SR_Meas_QMS101,,TA_Meas_QMH101,,GenWind,,GenWind,
date,time,status,PA,status,PR,status,RH,status,SR,status,TA,status,DirAvg,status,SpdAvg,
2009-09-25, 00:00:04,VALID,1003.6,VALID,0,VALID,90.387,VALID,0,VALID,24.5777,VALID,1,VALID,0,
2009-09-25, 00:01:04,VALID,1003.6,VALID,0,VALID,90.2268,VALID,0.100563,VALID,24.5972,VALID,1,VALID,0,
2009-09-25, 00:02:04,VALID,1003.62,VALID,0,VALID,90.1352,VALID,0,VALID,24.6166,VALID,4,VALID,0.0914062,
2009-09-25, 00:03:04,VALID,1003.59,VALID,0,VALID,90.0894,VALID,0,VALID,24.6148,VALID,5,VALID,0.149609,
2009-09-25, 00:04:04,VALID,1003.62,VALID,0,VALID,89.9598,VALID,0.100563,VALID,24.6361,VALID,32,VALID,0.208203,
2009-09-25, 00:05:04,VALID,1003.63,VALID,0,VALID,89.8758,VALID,0,VALID,24.6361,VALID,32,VALID,0,
2009-09-25, 00:06:04,VALID,1003.62,VALID,0,VALID,89.9292,VALID,0.100563,VALID,24.6361,VALID,32,VALID,0,
2009-09-25, 00:07:04,VALID,1003.65,VALID,0,VALID,89.9292,VALID,0.100563,VALID,24.6166,VALID,32,VALID,0,
2009-09-25, 00:08:04,VALID,1003.62,VALID,0,VALID,89.9064,VALID,0.100563,VALID,24.5972,VALID,32,VALID,0,
2009-09-25, 00:09:04,VALID,1003.62,VALID,0,VALID,89.9903,VALID,0,VALID,24.5777,VALID,32,VALID,0,
2009-09-25, 00:10:04,VALID,1003.62,VALID,0,VALID,90.0971,VALID,0,VALID,24.5582,VALID,32,VALID,0,
2009-09-25, 00:11:04,VALID,1003.6,VALID,0,VALID,90.3031,VALID,0,VALID,24.5582,VALID,32,VALID,0,
2009-09-25, 00:12:04,VALID,1003.6,VALID,0,VALID,90.3565,VALID,0,VALID,24.5193,VALID,32,VALID,0,
2009-09-25, 00:13:04,VALID,1003.63,VALID,0,VALID,90.387,VALID,0,VALID,24.498,VALID,32,VALID,0,
2009-09-25, 00:14:04,VALID,1003.6,VALID,0,VALID,90.4785,VALID,0.100563,VALID,24.5193,VALID,32,VALID,0,
2009-09-25, 00:15:04,VALID,1003.59,VALID,0,VALID,90.5319,VALID,0,VALID,24.4998,VALID,32,VALID,0,
2009-09-25, 00:16:04,VALID,1003.57,VALID,0,VALID,90.4785,VALID,0.100563,VALID,24.5193,VALID,30,VALID,0.233594,
2009-09-25, 00:17:04,VALID,1003.59,VALID,0,VALID,90.4709,VALID,0,VALID,24.498,VALID,30,VALID,0.0632813,
2009-09-25, 00:18:04,VALID,1003.59,VALID,0,VALID,90.5319,VALID,0.100563,VALID,24.498,VALID,30,VALID,0.298828,
2009-09-25, 00:19:04,VALID,1003.6,VALID,0,VALID,90.6921,VALID,0,VALID,24.4998,VALID,30,VALID,0.0101562,
2009-09-25, 00:20:04,VALID,1003.56,VALID,0,VALID,90.7837,VALID,0.100563,VALID,24.4609,VALID,30,VALID,0.302344,
2009-09-25, 00:21:04,VALID,1003.54,VALID,0,VALID,90.8905,VALID,0.100563,VALID,24.422,VALID,30,VALID,0.237891,
2009-09-25, 00:22:04,VALID,1003.58,VALID,0,VALID,90.9363,VALID,0,VALID,24.4025,VALID,30,VALID,0.128906,
2009-09-25, 00:23:04,VALID,1003.55,VALID,0,VALID,91.0125,VALID,0.100563,VALID,24.383,VALID,30,VALID,0.00585938,
2009-09-25, 00:24:04,VALID,1003.53,VALID,0,VALID,91.1346,VALID,0.100563,VALID,24.3228,VALID,30,VALID,0,
2009-09-25, 00:25:04,VALID,1003.53,VALID,0,VALID,91.1193,VALID,0.100563,VALID,24.3246,VALID,30,VALID,0.0128906,
2009-09-25, 00:26:04,VALID,1003.51,VALID,0,VALID,91.0507,VALID,0.100563,VALID,24.3033,VALID,30,VALID,0.09375,
2009-09-25, 00:27:04,VALID,1003.51,VALID,0,VALID,90.9897,VALID,0,VALID,24.2857,VALID,30,VALID,0,
2009-09-25, 00:28:04,VALID,1003.51,VALID,0,VALID,91.0812,VALID,0,VALID,24.2857,VALID,30,VALID,0.0398437,
2009-09-25, 00:29:04,VALID,1003.51,VALID,0,VALID,90.9439,VALID,0,VALID,24.307,VALID,30,VALID,0,
2009-09-25, 00:30:04,VALID,1003.5,VALID,0,VALID,91.0736,VALID,0,VALID,24.307,VALID,30,VALID,0.44375,
2009-09-25, 00:31:04,VALID,1003.51,VALID,0,VALID,90.8142,VALID,0,VALID,24.2875,VALID,30,VALID,0.250391,
2009-09-25, 00:32:04,VALID,1003.53,VALID,0,VALID,90.7837,VALID,0,VALID,24.2875,VALID,30,VALID,0.015625,
2009-09-25, 00:33:04,VALID,1003.57,VALID,0,VALID,90.7455,VALID,0,VALID,24.2857,VALID,30,VALID,0.110937,
2009-09-25, 00:34:04,VALID,1003.58,VALID,0,VALID,90.7226,VALID,0,VALID,24.2681,VALID,30,VALID,0.202344,
2009-09-25, 00:35:04,VALID,1003.57,VALID,0,VALID,90.6235,VALID,0,VALID,24.2486,VALID,30,VALID,0.288672,
2009-09-25, 00:36:04,VALID,1003.57,VALID,0,VALID,90.6769,VALID,0,VALID,24.2681,VALID,30,VALID,0.260156,
2009-09-25, 00:37:04,VALID,1003.58,VALID,0,VALID,90.7684,VALID,0,VALID,24.2486,VALID,30,VALID,0.198437,
2009-09-25, 00:38:04,VALID,1003.54,VALID,0,VALID,90.6845,VALID,0,VALID,24.2681,VALID,30,VALID,0,
2009-09-25, 00:39:04,VALID,1003.55,VALID,0,VALID,90.6692,VALID,0,VALID,24.2681,VALID,30,VALID,0,
2009-09-25, 00:40:04,VALID,1003.54,VALID,0,VALID,90.6006,VALID,0,VALID,24.2486,VALID,30,VALID,0,
2009-09-25, 00:41:04,VALID,1003.54,VALID,0,VALID,90.5396,VALID,0,VALID,24.2273,VALID,30,VALID,0.244531,
2009-09-25, 00:42:04,VALID,1003.54,VALID,0,VALID,90.6845,VALID,0,VALID,24.2486,VALID,30,VALID,0,
2009-09-25, 00:43:04,VALID,1003.57,VALID,0,VALID,90.654,VALID,0,VALID,24.2078,VALID,30,VALID,0.0171875,
2009-09-25, 00:44:04,VALID,1003.57,VALID,0,VALID,90.5853,VALID,0,VALID,24.2097,VALID,30,VALID,0.244922,
2009-09-25, 00:45:04,VALID,1003.58,VALID,0,VALID,90.7379,VALID,0,VALID,24.2097,VALID,30,VALID,0,
2009-09-25, 00:46:04,VALID,1003.61,VALID,0,VALID,90.8981,VALID,0,VALID,24.231,VALID,30,VALID,0,
2009-09-25, 00:47:04,VALID,1003.59,VALID,0,VALID,91.1193,VALID,0,VALID,24.1689,VALID,30,VALID,0,
2009-09-25, 00:48:04,VALID,1003.56,VALID,0,VALID,91.1499,VALID,0,VALID,24.1707,VALID,30,VALID,0,
2009-09-25, 00:49:04,VALID,1003.56,VALID,0,VALID,91.127,VALID,0,VALID,24.1513,VALID,30,VALID,0,
2009-09-25, 00:50:04,VALID,1003.56,VALID,0,VALID,91.0965,VALID,0,VALID,24.1318,VALID,30,VALID,0,
2009-09-25, 00:51:04,VALID,1003.57,VALID,0,VALID,91.1651,VALID,0,VALID,24.1105,VALID,30,VALID,0,
2009-09-25, 00:52:04,VALID,1003.55,VALID,0,VALID,91.2643,VALID,0,VALID,24.1123,VALID,30,VALID,0,
2009-09-25, 00:53:04,VALID,1003.52,VALID,0,VALID,91.0888,VALID,0,VALID,24.0716,VALID,30,VALID,0,
2009-09-25, 00:54:04,VALID,1003.54,VALID,0,VALID,91.1575,VALID,0,VALID,24.0716,VALID,30,VALID,0,
2009-09-25, 00:55:04,VALID,1003.52,VALID,0,VALID,91.188,VALID,0,VALID,24.0734,VALID,30,VALID,0,
2009-09-25, 00:56:04,VALID,1003.52,VALID,0,VALID,91.1117,VALID,0,VALID,24.0539,VALID,30,VALID,0,
2009-09-25, 00:57:04,VALID,1003.53,VALID,0,VALID,91.2567,VALID,0,VALID,24.0521,VALID,30,VALID,0,
2009-09-25, 00:58:04,VALID,1003.5,VALID,0,VALID,91.2796,VALID,0.100563,VALID,24.0326,VALID,30,VALID,0.287891,
2009-09-25, 00:59:04,VALID,1003.49,VALID,0,VALID,91.2643,VALID,0,VALID,24.0132,VALID,30,VALID,0,
2009-09-25, 01:00:04,VALID,1003.45,VALID,0,VALID,91.4474,VALID,0.100563,VALID,24.0132,VALID,30,VALID,0,
2009-09-25, 01:01:04,VALID,1003.44,VALID,0,VALID,91.4245,VALID,0,VALID,24.0132,VALID,30,VALID,0,
2009-09-25, 01:02:04,VALID,1003.44,VALID,0,VALID,91.4245,VALID,0,VALID,23.9937,VALID,30,VALID,0,
2009-09-25, 01:03:04,VALID,1003.4,VALID,0,VALID,91.5161,VALID,0.100563,VALID,23.953,VALID,30,VALID,0,
2009-09-25, 01:04:04,VALID,1003.41,VALID,0,VALID,91.4092,VALID,0,VALID,23.9761,VALID,30,VALID,0.423047,
2009-09-25, 01:05:04,VALID,1003.37,VALID,0,VALID,91.4626,VALID,0,VALID,23.9548,VALID,30,VALID,0.382422,
2009-09-25, 01:06:04,VALID,1003.34,VALID,0,VALID,91.3635,VALID,0.100563,VALID,23.9742,VALID,30,VALID,0.33125,
2009-09-25, 01:07:04,VALID,1003.34,VALID,0,VALID,91.5389,VALID,0.100563,VALID,23.9548,VALID,30,VALID,0.418359,
2009-09-25, 01:08:04,VALID,1003.35,VALID,0,VALID,91.5161,VALID,0,VALID,23.9548,VALID,30,VALID,0.344531,
2009-09-25, 01:09:04,VALID,1003.33,VALID,0,VALID,91.4245,VALID,0.100563,VALID,23.9353,VALID,30,VALID,0.205859,
2009-09-25, 01:10:04,VALID,1003.32,VALID,0,VALID,91.3787,VALID,0.100563,VALID,23.9159,VALID,30,VALID,0.183594,
2009-09-25, 01:11:04,VALID,1003.35,VALID,0,VALID,91.3406,VALID,0.100563,VALID,23.9566,VALID,30,VALID,0.296484,
2009-09-25, 01:12:04,VALID,1003.33,VALID,0,VALID,91.3024,VALID,0,VALID,23.9177,VALID,30,VALID,0.0371094,
2009-09-25, 01:13:04,VALID,1003.34,VALID,0,VALID,91.0888,VALID,0,VALID,23.9371,VALID,30,VALID,0.355078,
2009-09-25, 01:14:04,VALID,1003.34,VALID,0,VALID,90.776,VALID,0,VALID,23.9177,VALID,47,VALID,0.348437,
2009-09-25, 01:15:04,VALID,1003.32,VALID,0,VALID,90.7226,VALID,0,VALID,23.9566,VALID,47,VALID,0.190234,
2009-09-25, 01:16:04,VALID,1003.32,VALID,0,VALID,90.6158,VALID,0,VALID,23.9371,VALID,47,VALID,0,
2009-09-25, 01:17:04,VALID,1003.31,VALID,0,VALID,90.6006,VALID,0,VALID,23.9159,VALID,47,VALID,0.00585938,
2009-09-25, 01:18:04,VALID,1003.31,VALID,0,VALID,90.4251,VALID,0,VALID,23.9371,VALID,47,VALID,0.303516,
2009-09-25, 01:19:04,VALID,1003.27,VALID,0,VALID,90.4785,VALID,0,VALID,23.9177,VALID,47,VALID,0.309766,
2009-09-25, 01:20:04,VALID,1003.25,VALID,0,VALID,90.7226,VALID,0,VALID,23.8982,VALID,47,VALID,0.324219,
2009-09-25, 01:21:04,VALID,1003.21,VALID,0,VALID,90.7684,VALID,0,VALID,23.8982,VALID,47,VALID,0.14375,
2009-09-25, 01:22:04,VALID,1003.2,VALID,0,VALID,90.8371,VALID,0,VALID,23.8787,VALID,47,VALID,0.1,
2009-09-25, 01:23:04,VALID,1003.2,VALID,0,VALID,90.9973,VALID,0,VALID,23.8787,VALID,47,VALID,0.210938,
2009-09-25, 01:24:04,VALID,1003.22,VALID,0,VALID,91.188,VALID,0,VALID,23.8593,VALID,47,VALID,0.273828,
2009-09-25, 01:25:04,VALID,1003.18,VALID,0,VALID,91.2719,VALID,0,VALID,23.8593,VALID,47,VALID,0.0917969,
2009-09-25, 01:26:04,VALID,1003.16,VALID,0,VALID,91.2948,VALID,0,VALID,23.8593,VALID,47,VALID,0.260156,
2009-09-25, 01:27:04,VALID,1003.16,VALID,0,VALID,91.455,VALID,0,VALID,23.8593,VALID,47,VALID,0,
2009-09-25, 01:28:04,VALID,1003.16,VALID,0,VALID,91.5847,VALID,0.100563,VALID,23.8805,VALID,47,VALID,0.196094,
2009-09-25, 01:29:04,VALID,1003.16,VALID,0,VALID,91.6686,VALID,0,VALID,23.8593,VALID,47,VALID,0,
2009-09-25, 01:30:04,VALID,1003.14,VALID,0,VALID,91.7602,VALID,0,VALID,23.8398,VALID,47,VALID,0,
2009-09-25, 01:31:04,VALID,1003.13,VALID,0,VALID,91.8288,VALID,0,VALID,23.8611,VALID,47,VALID,0,
2009-09-25, 01:32:04,VALID,1003.11,VALID,0,VALID,91.8594,VALID,0,VALID,23.8203,VALID,47,VALID,0.217187,
2009-09-25, 01:33:04,VALID,1003.11,VALID,0,VALID,91.7983,VALID,0,VALID,23.8416,VALID,47,VALID,0.410156,
2009-09-25, 01:34:04,VALID,1003.11,VALID,0,VALID,91.5542,VALID,0,VALID,23.7796,VALID,47,VALID,0.478906,
2009-09-25, 01:35:04,VALID,1003.1,VALID,0,VALID,91.1728,VALID,0,VALID,23.7814,VALID,72,VALID,0.724609,
2009-09-25, 01:36:04,VALID,1003.09,VALID,0,VALID,90.8752,VALID,0,VALID,23.8009,VALID,75,VALID,0.588281,
2009-09-25, 01:37:04,VALID,1003.08,VALID,0,VALID,90.5548,VALID,0,VALID,23.8185,VALID,75,VALID,0.298828,
2009-09-25, 01:38:04,VALID,1003.08,VALID,0,VALID,90.5243,VALID,0,VALID,23.8593,VALID,75,VALID,0.458984,
2009-09-25, 01:39:04,VALID,1003.03,VALID,0,VALID,90.2878,VALID,0,VALID,23.8787,VALID,75,VALID,0.360938,
2009-09-25, 01:40:04,VALID,1003.01,VALID,0,VALID,90.2497,VALID,0,VALID,23.8787,VALID,75,VALID,0.460938,
2009-09-25, 01:41:04,VALID,1003.03,VALID,0,VALID,90.2725,VALID,0,VALID,23.8398,VALID,75,VALID,0.391016,
2009-09-25, 01:42:04,VALID,1002.99,VALID,0,VALID,90.3946,VALID,0,VALID,23.8203,VALID,75,VALID,0.169531,
2009-09-25, 01:43:04,VALID,1002.98,VALID,0,VALID,90.5701,VALID,0,VALID,23.8203,VALID,75,VALID,0.226172,
2009-09-25, 01:44:04,VALID,1002.93,VALID,0,VALID,90.6616,VALID,0,VALID,23.7796,VALID,75,VALID,0.164844,
2009-09-25, 01:45:04,VALID,1002.93,VALID,0,VALID,90.776,VALID,0,VALID,23.7796,VALID,75,VALID,0.274609,
2009-09-25, 01:46:04,VALID,1002.93,VALID,0,VALID,91.0354,VALID,0,VALID,23.8009,VALID,46,VALID,0.352344,
2009-09-25, 01:47:04,VALID,1002.91,VALID,0,VALID,91.1728,VALID,0,VALID,23.7814,VALID,46,VALID,0.0175781,
2009-09-25, 01:48:04,VALID,1002.9,VALID,0,VALID,91.2948,VALID,0,VALID,23.7601,VALID,46,VALID,0,
2009-09-25, 01:49:04,VALID,1002.9,VALID,0,VALID,91.455,VALID,0,VALID,23.7814,VALID,46,VALID,0.0996094,
2009-09-25, 01:50:04,VALID,1002.88,VALID,0,VALID,91.4321,VALID,0,VALID,23.7601,VALID,46,VALID,0,
2009-09-25, 01:51:04,VALID,1002.87,VALID,0,VALID,91.4626,VALID,0.100563,VALID,23.7991,VALID,46,VALID,0,
2009-09-25, 01:52:04,VALID,1002.88,VALID,0,VALID,91.2109,VALID,0,VALID,23.8009,VALID,46,VALID,0.0316406,
2009-09-25, 01:53:04,VALID,1002.86,VALID,0,VALID,90.9744,VALID,0,VALID,23.8185,VALID,46,VALID,0.337891,
2009-09-25, 01:54:04,VALID,1002.85,VALID,0,VALID,90.86,VALID,0,VALID,23.8593,VALID,46,VALID,0.246875,
2009-09-25, 01:55:04,VALID,1002.84,VALID,0,VALID,90.9591,VALID,0,VALID,23.8787,VALID,46,VALID,0.232422,
2009-09-25, 01:56:04,VALID,1002.84,VALID,0,VALID,91.0049,VALID,0,VALID,23.8593,VALID,46,VALID,0.269141,
2009-09-25, 01:57:04,VALID,1002.83,VALID,0,VALID,91.0431,VALID,0,VALID,23.8398,VALID,46,VALID,0.474609,
2009-09-25, 01:58:04,VALID,1002.83,VALID,0,VALID,91.1804,VALID,0,VALID,23.8203,VALID,46,VALID,0.43125,
2009-09-25, 01:59:04,VALID,1002.82,VALID,0,VALID,91.3177,VALID,0,VALID,23.8203,VALID,46,VALID,0.34375,
2009-09-25, 02:00:04,VALID,1002.84,VALID,0,VALID,91.3787,VALID,0,VALID,23.8009,VALID,46,VALID,0.4375,
2009-09-25, 02:01:04,VALID,1002.84,VALID,0,VALID,91.5084,VALID,0,VALID,23.7619,VALID,43,VALID,0.509375,
2009-09-25, 02:02:04,VALID,1002.85,VALID,0,VALID,91.6457,VALID,0,VALID,23.7425,VALID,25,VALID,0.620703,
2009-09-25, 02:03:04,VALID,1002.84,VALID,0,VALID,91.7297,VALID,0,VALID,23.7443,VALID,20,VALID,0.421875,
2009-09-25, 02:04:04,VALID,1002.83,VALID,0,VALID,91.8136,VALID,0,VALID,23.7035,VALID,15,VALID,0.442187,
2009-09-25, 02:05:04,VALID,1002.83,VALID,0,VALID,91.8975,VALID,0,VALID,23.7053,VALID,15,VALID,0.403516,
2009-09-25, 02:06:04,VALID,1002.81,VALID,0,VALID,91.989,VALID,0,VALID,23.6628,VALID,15,VALID,0.440234,
2009-09-25, 02:07:04,VALID,1002.8,VALID,0,VALID,92.0272,VALID,0,VALID,23.6239,VALID,15,VALID,0.491406,
2009-09-25, 02:08:04,VALID,1002.76,VALID,0,VALID,92.2255,VALID,0,VALID,23.6257,VALID,15,VALID,0.257813,
2009-09-25, 02:09:04,VALID,1002.77,VALID,0,VALID,92.3934,VALID,0,VALID,23.6257,VALID,15,VALID,0.462109,
2009-09-25, 02:10:04,VALID,1002.75,VALID,0,VALID,92.4697,VALID,0,VALID,23.5655,VALID,15,VALID,0.367578,
2009-09-25, 02:11:04,VALID,1002.75,VALID,0,VALID,92.5307,VALID,0,VALID,23.5673,VALID,15,VALID,0,
2009-09-25, 02:12:04,VALID,1002.72,VALID,0,VALID,92.5688,VALID,0,VALID,23.546,VALID,15,VALID,0,
2009-09-25, 02:13:04,VALID,1002.72,VALID,0,VALID,92.668,VALID,0,VALID,23.5266,VALID,15,VALID,0.297266,
2009-09-25, 02:14:04,VALID,1002.69,VALID,0,VALID,92.7367,VALID,0,VALID,23.5284,VALID,15,VALID,0.273828,
2009-09-25, 02:15:04,VALID,1002.71,VALID,0,VALID,92.8206,VALID,0,VALID,23.5089,VALID,15,VALID,0.268359,
2009-09-25, 02:16:04,VALID,1002.66,VALID,0,VALID,92.9274,VALID,0,VALID,23.4877,VALID,15,VALID,0.220313,
2009-09-25, 02:17:04,VALID,1002.65,VALID,0,VALID,92.9884,VALID,0,VALID,23.4682,VALID,15,VALID,0.140625,
2009-09-25, 02:18:04,VALID,1002.64,VALID,0,VALID,93.0571,VALID,0,VALID,23.4682,VALID,15,VALID,0.00625,
2009-09-25, 02:19:04,VALID,1002.63,VALID,0,VALID,93.141,VALID,0,VALID,23.4682,VALID,15,VALID,0.215625,
2009-09-25, 02:20:04,VALID,1002.61,VALID,0,VALID,93.1944,VALID,0,VALID,23.47,VALID,15,VALID,0,
2009-09-25, 02:21:04,VALID,1002.6,VALID,0,VALID,93.2478,VALID,0,VALID,23.4505,VALID,15,VALID,0,
2009-09-25, 02:22:04,VALID,1002.6,VALID,0,VALID,93.2936,VALID,0,VALID,23.408,VALID,15,VALID,0,
2009-09-25, 02:23:04,VALID,1002.63,VALID,0,VALID,93.2402,VALID,0,VALID,23.4098,VALID,15,VALID,0,
2009-09-25, 02:24:04,VALID,1002.64,VALID,0,VALID,93.1791,VALID,0,VALID,23.4311,VALID,15,VALID,0.311328,
2009-09-25, 02:25:04,VALID,1002.61,VALID,0,VALID,93.1868,VALID,0,VALID,23.3904,VALID,15,VALID,0,
2009-09-25, 02:26:04,VALID,1002.62,VALID,0,VALID,93.1944,VALID,0,VALID,23.3709,VALID,15,VALID,0,
2009-09-25, 02:27:04,VALID,1002.6,VALID,0,VALID,93.2631,VALID,0,VALID,23.4116,VALID,15,VALID,0,
2009-09-25, 02:28:04,VALID,1002.63,VALID,0,VALID,93.3622,VALID,0,VALID,23.3921,VALID,15,VALID,0,
2009-09-25, 02:29:04,VALID,1002.64,VALID,0,VALID,93.4004,VALID,0,VALID,23.3727,VALID,15,VALID,0,
2009-09-25, 02:30:04,VALID,1002.64,VALID,0,VALID,93.4538,VALID,0,VALID,23.3709,VALID,15,VALID,0,
2009-09-25, 02:31:04,VALID,1002.64,VALID,0,VALID,93.4919,VALID,0,VALID,23.3709,VALID,15,VALID,0,
2009-09-25, 02:32:04,VALID,1002.65,VALID,0,VALID,93.5224,VALID,0,VALID,23.3709,VALID,15,VALID,0,
2009-09-25, 02:33:04,VALID,1002.64,VALID,0,VALID,93.5453,VALID,0,VALID,23.3514,VALID,15,VALID,0,
2009-09-25, 02:34:04,VALID,1002.64,VALID,0,VALID,93.5453,VALID,0,VALID,23.3727,VALID,15,VALID,0,
2009-09-25, 02:35:04,VALID,1002.63,VALID,0,VALID,93.553,VALID,0,VALID,23.3727,VALID,15,VALID,0,
2009-09-25, 02:36:04,VALID,1002.63,VALID,0,VALID,93.5682,VALID,0,VALID,23.3921,VALID,15,VALID,0,
2009-09-25, 02:37:04,VALID,1002.63,VALID,0,VALID,93.6369,VALID,0,VALID,23.3921,VALID,15,VALID,0,
2009-09-25, 02:38:04,VALID,1002.66,VALID,0,VALID,93.5987,VALID,0,VALID,23.3709,VALID,15,VALID,0,
2009-09-25, 02:39:04,VALID,1002.66,VALID,0,VALID,93.6216,VALID,0,VALID,23.3514,VALID,15,VALID,0,
2009-09-25, 02:40:04,VALID,1002.63,VALID,0,VALID,93.6292,VALID,0,VALID,23.3727,VALID,15,VALID,0,
2009-09-25, 02:41:04,VALID,1002.64,VALID,0,VALID,93.6521,VALID,0,VALID,23.3727,VALID,15,VALID,0,
2009-09-25, 02:42:04,VALID,1002.66,VALID,0,VALID,93.6826,VALID,0,VALID,23.3921,VALID,15,VALID,0,
2009-09-25, 02:43:04,VALID,1002.69,VALID,0,VALID,93.6521,VALID,0,VALID,23.3921,VALID,15,VALID,0.546094,
2009-09-25, 02:44:04,VALID,1002.68,VALID,0,VALID,93.4919,VALID,0,VALID,23.4311,VALID,15,VALID,0.501172,
2009-09-25, 02:45:04,VALID,1002.68,VALID,0,VALID,93.3317,VALID,0,VALID,23.4293,VALID,15,VALID,0,
2009-09-25, 02:46:04,VALID,1002.7,VALID,0,VALID,93.2173,VALID,0,VALID,23.4487,VALID,15,VALID,0,
2009-09-25, 02:47:04,VALID,1002.65,VALID,0,VALID,93.202,VALID,0,VALID,23.47,VALID,15,VALID,0,
2009-09-25, 02:48:04,VALID,1002.66,VALID,0,VALID,93.3317,VALID,0,VALID,23.4487,VALID,15,VALID,0,
2009-09-25, 02:49:04,VALID,1002.65,VALID,0,VALID,93.3622,VALID,0,VALID,23.4487,VALID,15,VALID,0.392969,
2009-09-25, 02:50:04,VALID,1002.65,VALID,0,VALID,93.408,VALID,0,VALID,23.4505,VALID,15,VALID,0.260156,
2009-09-25, 02:51:04,VALID,1002.67,VALID,0,VALID,93.4614,VALID,0,VALID,23.4311,VALID,15,VALID,0.207422,
2009-09-25, 02:52:04,VALID,1002.65,VALID,0,VALID,93.5148,VALID,0,VALID,23.4116,VALID,15,VALID,0.341016,
2009-09-25, 02:53:04,VALID,1002.61,VALID,0,VALID,93.614,VALID,0,VALID,23.4116,VALID,15,VALID,0.476563,
2009-09-25, 02:54:04,VALID,1002.61,VALID,0,VALID,93.6674,VALID,0,VALID,23.4116,VALID,15,VALID,0.479688,
2009-09-25, 02:55:04,VALID,1002.62,VALID,0,VALID,93.7284,VALID,0,VALID,23.3709,VALID,15,VALID,0.261719,
2009-09-25, 02:56:04,VALID,1002.57,VALID,0,VALID,93.7666,VALID,0,VALID,23.3921,VALID,15,VALID,0.084375,
2009-09-25, 02:57:04,VALID,1002.58,VALID,0,VALID,93.8276,VALID,0,VALID,23.3904,VALID,15,VALID,0.383984,
2009-09-25, 02:58:04,VALID,1002.56,VALID,0,VALID,93.8963,VALID,0,VALID,23.4311,VALID,15,VALID,0.350391,
2009-09-25, 02:59:04,VALID,1002.58,VALID,0,VALID,93.9191,VALID,0,VALID,23.4311,VALID,15,VALID,0.189844,
2009-09-25, 03:00:04,VALID,1002.56,VALID,0,VALID,93.9344,VALID,0,VALID,23.4311,VALID,15,VALID,0.275781,
2009-09-25, 03:01:04,VALID,1002.57,VALID,0,VALID,93.9039,VALID,0,VALID,23.4311,VALID,15,VALID,0.252734,
2009-09-25, 03:02:04,VALID,1002.55,VALID,0,VALID,93.9039,VALID,0,VALID,23.4311,VALID,15,VALID,0.329688,
2009-09-25, 03:03:04,VALID,1002.53,VALID,0,VALID,93.8734,VALID,0,VALID,23.3904,VALID,15,VALID,0.329297,
2009-09-25, 03:04:04,VALID,1002.55,VALID,0,VALID,93.8581,VALID,0,VALID,23.3921,VALID,15,VALID,0.294141,
2009-09-25, 03:05:04,VALID,1002.56,VALID,0,VALID,93.8657,VALID,0,VALID,23.3921,VALID,15,VALID,0.285937,
2009-09-25, 03:06:04,VALID,1002.58,VALID,0,VALID,93.8963,VALID,0,VALID,23.3532,VALID,15,VALID,0.308984,
2009-09-25, 03:07:04,VALID,1002.61,VALID,0,VALID,93.8963,VALID,0,VALID,23.3727,VALID,15,VALID,0.342969,
2009-09-25, 03:08:04,VALID,1002.64,VALID,0,VALID,93.942,VALID,0,VALID,23.3514,VALID,15,VALID,0.199609,
2009-09-25, 03:09:04,VALID,1002.63,VALID,0,VALID,93.9802,VALID,0,VALID,23.3921,VALID,15,VALID,0.0445312,
2009-09-25, 03:10:04,VALID,1002.65,VALID,0,VALID,93.9954,VALID,0,VALID,23.4116,VALID,15,VALID,0.1875,
2009-09-25, 03:11:04,VALID,1002.69,VALID,0,VALID,94.0488,VALID,0,VALID,23.3921,VALID,15,VALID,0,
2009-09-25, 03:12:04,VALID,1002.7,VALID,0,VALID,94.0183,VALID,0,VALID,23.4116,VALID,15,VALID,0,
2009-09-25, 03:13:04,VALID,1002.68,VALID,0,VALID,94.0565,VALID,0,VALID,23.4311,VALID,15,VALID,0.409766,
2009-09-25, 03:14:04,VALID,1002.7,VALID,0,VALID,94.0794,VALID,0,VALID,23.4311,VALID,15,VALID,0.488672,
2009-09-25, 03:15:04,VALID,1002.68,VALID,0,VALID,94.0717,VALID,0,VALID,23.4505,VALID,14,VALID,0.535937,
2009-09-25, 03:16:04,VALID,1002.68,VALID,0,VALID,94.0717,VALID,0,VALID,23.4293,VALID,14,VALID,0.353906,
2009-09-25, 03:17:04,VALID,1002.69,VALID,0,VALID,94.0717,VALID,0,VALID,23.4505,VALID,14,VALID,0.226172,
2009-09-25, 03:18:04,VALID,1002.7,VALID,0,VALID,94.0717,VALID,0,VALID,23.4505,VALID,14,VALID,0.0195313,
2009-09-25, 03:19:04,VALID,1002.68,VALID,0,VALID,94.0946,VALID,0,VALID,23.4487,VALID,14,VALID,0,
2009-09-25, 03:20:04,VALID,1002.7,VALID,0,VALID,94.1251,VALID,0,VALID,23.4487,VALID,14,VALID,0,
2009-09-25, 03:21:04,VALID,1002.68,VALID,0,VALID,94.2167,VALID,0,VALID,23.5089,VALID,14,VALID,0,
2009-09-25, 03:22:04,VALID,1002.68,VALID,0,VALID,94.1862,VALID,0,VALID,23.5089,VALID,14,VALID,0,
2009-09-25, 03:23:04,VALID,1002.67,VALID,0,VALID,94.148,VALID,0,VALID,23.4877,VALID,14,VALID,0,
2009-09-25, 03:24:04,VALID,1002.68,VALID,0,VALID,94.0794,VALID,0,VALID,23.4894,VALID,14,VALID,0,
2009-09-25, 03:25:04,VALID,1002.66,VALID,0,VALID,94.0641,VALID,0,VALID,23.4877,VALID,14,VALID,0,
2009-09-25, 03:26:04,VALID,1002.66,VALID,0,VALID,94.1328,VALID,0,VALID,23.4877,VALID,14,VALID,0,
2009-09-25, 03:27:04,VALID,1002.63,VALID,0,VALID,94.1709,VALID,0,VALID,23.4877,VALID,14,VALID,0.33125,
2009-09-25, 03:28:04,VALID,1002.61,VALID,0,VALID,94.1709,VALID,0,VALID,23.4894,VALID,14,VALID,0.294141,
2009-09-25, 03:29:04,VALID,1002.61,VALID,0,VALID,94.1175,VALID,0,VALID,23.4682,VALID,14,VALID,0.0105469,
2009-09-25, 03:30:04,VALID,1002.63,VALID,0,VALID,94.1404,VALID,0,VALID,23.47,VALID,14,VALID,0,
2009-09-25, 03:31:04,VALID,1002.6,VALID,0,VALID,94.1709,VALID,0,VALID,23.4894,VALID,14,VALID,0,
2009-09-25, 03:32:04,VALID,1002.63,VALID,0,VALID,94.2167,VALID,0,VALID,23.4682,VALID,14,VALID,0.0125,
2009-09-25, 03:33:04,VALID,1002.61,VALID,0,VALID,94.2777,VALID,0,VALID,23.4682,VALID,14,VALID,0.3125,
2009-09-25, 03:34:04,VALID,1002.62,VALID,0,VALID,94.3235,VALID,0,VALID,23.5071,VALID,14,VALID,0.326953,
2009-09-25, 03:35:04,VALID,1002.63,VALID,0,VALID,94.3692,VALID,0,VALID,23.5266,VALID,14,VALID,0.29375,
2009-09-25, 03:36:04,VALID,1002.63,VALID,0,VALID,94.4532,VALID,0,VALID,23.5673,VALID,14,VALID,0.249609,
2009-09-25, 03:37:04,VALID,1002.62,VALID,0,VALID,94.4455,VALID,0,VALID,23.5655,VALID,15,VALID,0,
2009-09-25, 03:38:04,VALID,1002.64,VALID,0,VALID,94.4379,VALID,0,VALID,23.5868,VALID,15,VALID,0,
2009-09-25, 03:39:04,VALID,1002.61,VALID,0,VALID,94.4303,VALID,0,VALID,23.5655,VALID,15,VALID,0.419922,
2009-09-25, 03:40:04,VALID,1002.63,VALID,0,VALID,94.3921,VALID,0,VALID,23.5868,VALID,14,VALID,0.510156,
2009-09-25, 03:41:04,VALID,1002.61,VALID,0,VALID,94.3082,VALID,0,VALID,23.5266,VALID,14,VALID,0.312891,
2009-09-25, 03:42:04,VALID,1002.62,VALID,0,VALID,94.1938,VALID,0,VALID,23.5089,VALID,14,VALID,0,
2009-09-25, 03:43:04,VALID,1002.61,VALID,0,VALID,94.1251,VALID,0,VALID,23.4877,VALID,14,VALID,0.0191406,
2009-09-25, 03:44:04,VALID,1002.58,VALID,0,VALID,94.1709,VALID,0,VALID,23.5266,VALID,14,VALID,0.0734375,
2009-09-25, 03:45:04,VALID,1002.61,VALID,0,VALID,94.2396,VALID,0,VALID,23.5478,VALID,14,VALID,0,
2009-09-25, 03:46:04,VALID,1002.58,VALID,0,VALID,94.2548,VALID,0,VALID,23.546,VALID,14,VALID,0,
2009-09-25, 03:47:04,VALID,1002.57,VALID,0,VALID,94.2548,VALID,0,VALID,23.5868,VALID,14,VALID,0,
2009-09-25, 03:48:04,VALID,1002.57,VALID,0,VALID,94.2624,VALID,0,VALID,23.5637,VALID,14,VALID,0,
2009-09-25, 03:49:04,VALID,1002.53,VALID,0,VALID,94.3006,VALID,0,VALID,23.6434,VALID,14,VALID,0,
2009-09-25, 03:50:04,VALID,1002.55,VALID,0,VALID,94.2853,VALID,0,VALID,23.6823,VALID,15,VALID,0,
2009-09-25, 03:51:04,VALID,1002.54,VALID,0,VALID,94.2396,VALID,0,VALID,23.7017,VALID,14,VALID,0.340234,